Flag for Germany Weather past 2 weeks in Freising, Bavaria, Germany

Now
47 °F

Light rain. Overcast.


Feels Like: 43 °F
Forecast: 34 / 46 °F
Wind: 8 mph from Southwest

Location: Muenchen Flughafen

Current Time: Mar 2, 2015 at 2:17:09 AM

Latest Report: Mar 2, 2015 at 1:00 AM


Visibility: 28 mi

Pressure: 29.75 "Hg

Humidity: 83%

Dew point: 42 °F

Location of FreisingLocation

Historic Weather in Freising — Graph

°F

Freising temperature yesterday

Maximum temperature yesterday: 47 °F (at 9:00 PM)
Minimum temperature yesterday: 25 °F (at 3:00 AM)
Average temperature yesterday: 37 °F

Past Weeks' High & Low Weather Summary

 TemperatureHumidityPressure
High47 °F (Feb 20, 4:00 PM)100% (Feb 16, 11:00 AM)30.80 "Hg (Feb 16, 11:00 AM)
Low16 °F (Feb 20, 6:00 AM)44% (Feb 27, 3:00 PM)29.50 "Hg (Feb 21, 2:00 PM)
Average32 °F89%30.09 "Hg
* Reported Feb 15 1:00 AM — Mar 2 1:00 AM, Freising, Weather by CustomWeather, © 2015

Note: Actual official high and low records may vary slightly from our data, if they occured in-between our weather recording intervals... More about our weather records

Advertising

Freising weather history for previous 24 hours

 ConditionsComfort  
Time TempWeatherWind HumidityBarometerVisibility
1:00 AM
Mon, Mar 2
47 °FLight rain. Overcast.8 mph83%29.75 "Hg28 mi
12:00 AM46 °FOvercast.3 mph82%29.77 "Hg37 mi
11:00 PM
Sun, Mar 1
46 °FOvercast.3 mph83%29.79 "Hg37 mi
10:00 PM46 °FOvercast.7 mph84%29.82 "Hg37 mi
9:00 PM47 °FOvercast.6 mph79%29.83 "Hg31 mi
8:00 PM45 °FOvercast.6 mph81%29.83 "Hg37 mi
7:00 PM45 °FOvercast.7 mph81%29.83 "Hg37 mi
6:00 PM46 °FOvercast.5 mph79%29.83 "Hg37 mi
5:00 PM45 °FOvercast.6 mph87%29.83 "Hg37 mi
4:00 PM46 °FLight rain. Overcast.8 mph84%29.83 "Hg8 mi
3:00 PM46 °FOvercast.9 mph82%29.83 "Hg19 mi
2:00 PM44 °FSprinkles. Overcast.10 mph89%29.85 "Hg2 mi
1:00 PM42 °FOvercast.5 mph82%29.85 "Hg11 mi
12:00 PM38 °FOvercast.3 mph93%29.88 "Hg11 mi
11:00 AM36 °FLight rain. Overcast.5 mph91%29.91 "Hg6 mi
10:00 AM35 °FLight rain. Overcast.5 mph91%29.93 "Hg9 mi
9:00 AM35 °FLight snow. Overcast.3 mph87%29.94 "Hg6 mi
8:00 AM33 °FOvercast.2 mph86%29.95 "Hg11 mi
7:00 AM32 °FOvercast.1 mph88%29.96 "Hg6 mi
6:00 AM28 °FFog.1 mph98%29.99 "Hg3 mi
5:00 AM26 °FFog.No wind97%30.01 "Hg2 mi
4:00 AM26 °FFog.1 mph97%30.02 "Hg2 mi
3:00 AM25 °FFog.2 mph96%30.05 "Hg3 mi
2:00 AM27 °FFog.No wind98%30.07 "Hg4 mi
Weather by CustomWeather, © 2015

See weather overviewHow to use our weather pages